TimeCDT,TemperatureF,Dew PointF,Humidity,Sea Level PressureIn,VisibilityMPH,Wind Direction,Wind SpeedMPH,Gust SpeedMPH,PrecipitationIn,Events,Conditions,WindDirDegrees,DateUTC
12:53 AM,75.0,70.0,84,29.76,10.0,Calm,Calm,-,N/A,,Mostly Cloudy,0,2013-06-27 05:53:00
1:53 AM,73.9,69.1,85,29.75,10.0,South,4.6,-,N/A,,Mostly Cloudy,190,2013-06-27 06:53:00
2:01 AM,73.4,69.8,88,29.77,10.0,South,4.6,-,N/A,,Mostly Cloudy,190,2013-06-27 07:01:00
2:53 AM,73.9,70.0,87,29.76,10.0,Calm,Calm,-,N/A,,Overcast,0,2013-06-27 07:53:00
3:35 AM,73.4,69.8,88,29.77,10.0,Calm,Calm,-,N/A,,Scattered Clouds,0,2013-06-27 08:35:00
3:53 AM,73.0,70.0,90,29.75,10.0,Calm,Calm,-,N/A,,Clear,0,2013-06-27 08:53:00
4:53 AM,71.1,69.1,93,29.76,9.0,Calm,Calm,-,N/A,,Clear,0,2013-06-27 09:53:00
5:53 AM,70.0,69.1,97,29.78,8.0,WNW,4.6,-,N/A,,Partly Cloudy,300,2013-06-27 10:53:00
6:53 AM,73.0,70.0,90,29.78,10.0,NW,5.8,-,N/A,,Clear,310,2013-06-27 11:53:00
7:26 AM,73.4,69.8,88,29.80,10.0,NW,5.8,-,N/A,,Partly Cloudy,310,2013-06-27 12:26:00
7:46 AM,75.2,69.8,83,29.80,10.0,NW,3.5,-,N/A,,Mostly Cloudy,320,2013-06-27 12:46:00
7:53 AM,75.0,70.0,84,29.78,10.0,NW,4.6,-,N/A,,Mostly Cloudy,320,2013-06-27 12:53:00
8:13 AM,75.2,69.8,83,29.80,10.0,NW,6.9,-,N/A,,Scattered Clouds,320,2013-06-27 13:13:00
8:53 AM,79.0,70.0,74,29.78,10.0,NW,6.9,-,N/A,,Partly Cloudy,310,2013-06-27 13:53:00
9:53 AM,81.0,70.0,69,29.78,10.0,Variable,6.9,-,N/A,,Scattered Clouds,0,2013-06-27 14:53:00
10:53 AM,81.0,69.1,67,29.78,10.0,WNW,9.2,-,N/A,,Scattered Clouds,300,2013-06-27 15:53:00
11:53 AM,82.9,70.0,65,29.76,10.0,Variable,6.9,-,N/A,,Scattered Clouds,0,2013-06-27 16:53:00
12:53 PM,84.9,66.9,55,29.76,10.0,Variable,5.8,-,N/A,,Scattered Clouds,0,2013-06-27 17:53:00
1:53 PM,86.0,64.0,48,29.74,10.0,West,9.2,16.1,N/A,,Scattered Clouds,280,2013-06-27 18:53:00
2:22 PM,86.0,64.4,48,29.74,10.0,West,6.9,-,N/A,Thunderstorm,Thunderstorm,270,2013-06-27 19:22:00
2:53 PM,87.1,66.0,49,29.71,10.0,West,8.1,16.1,N/A,Thunderstorm,Thunderstorm,270,2013-06-27 19:53:00
3:23 PM,87.8,66.2,49,29.73,10.0,WNW,12.7,21.9,N/A,,Mostly Cloudy,290,2013-06-27 20:23:00
3:53 PM,80.1,66.0,62,29.72,10.0,North,6.9,-,N/A,,Scattered Clouds,10,2013-06-27 20:53:00
4:53 PM,84.9,68.0,57,29.69,10.0,Calm,Calm,-,N/A,,Mostly Cloudy,0,2013-06-27 21:53:00
5:53 PM,84.9,62.1,46,29.68,10.0,WNW,8.1,-,N/A,,Partly Cloudy,290,2013-06-27 22:53:00
6:53 PM,82.9,59.0,44,29.70,10.0,NW,11.5,19.6,N/A,,Partly Cloudy,310,2013-06-27 23:53:00
7:53 PM,81.0,60.1,49,29.71,10.0,NW,6.9,-,N/A,,Partly Cloudy,320,2013-06-28 00:53:00
8:53 PM,78.1,60.1,54,29.71,10.0,Variable,4.6,-,N/A,,Partly Cloudy,0,2013-06-28 01:53:00
9:53 PM,75.9,59.0,56,29.72,10.0,Calm,Calm,-,N/A,,Partly Cloudy,0,2013-06-28 02:53:00
10:53 PM,73.9,59.0,59,29.71,10.0,Variable,4.6,-,N/A,,Clear,0,2013-06-28 03:53:00
11:53 PM,73.0,57.9,59,29.72,10.0,WNW,4.6,-,N/A,,Partly Cloudy,290,2013-06-28 04:53:00